SWA1785 KSTL-KPHX

Flight info

Callsign SWA1785
Flight time N/A
Altitude 32000
Route JAHNY6 MAP RZC IRW PNH ACH ZUN EAGUL6
Aircraft B738/M-SDE2E3FGHIRWXY/LB1

Departure

Time 2026-05-07 16:06
Airport St. Louis Lambert International Airport (KSTL)

Arrival

Time N/A
Airport Phoenix Sky Harbor International Airport (KPHX)
Time Latitude Longitude Altitude Speed Heading
2026-05-07 15:22 38.73754 -90.35465 582 ft 0 kts 214°
2026-05-07 15:52 38.73770 -90.35451 579 ft 4 kts 218°
2026-05-07 15:52 38.73791 -90.35429 578 ft 4 kts 220°
2026-05-07 15:52 38.73800 -90.35420 580 ft 1 kts 219°
2026-05-07 15:58 38.73801 -90.35426 580 ft 1 kts 273°
2026-05-07 15:58 38.73822 -90.35455 579 ft 9 kts 310°
2026-05-07 15:58 38.73874 -90.35566 575 ft 21 kts 302°
2026-05-07 15:58 38.73970 -90.35624 580 ft 16 kts 34°
2026-05-07 15:59 38.74042 -90.35614 576 ft 11 kts 307°
2026-05-07 15:59 38.74089 -90.35701 576 ft 13 kts 302°
2026-05-07 15:59 38.74147 -90.35818 574 ft 20 kts 302°
2026-05-07 15:59 38.74237 -90.36000 577 ft 24 kts 301°
2026-05-07 16:00 38.74327 -90.36176 574 ft 23 kts 300°
2026-05-07 16:00 38.74408 -90.36349 564 ft 22 kts 301°
2026-05-07 16:00 38.74488 -90.36515 562 ft 22 kts 300°
2026-05-07 16:00 38.74569 -90.36675 560 ft 21 kts 302°
2026-05-07 16:01 38.74644 -90.36832 553 ft 20 kts 301°
2026-05-07 16:01 38.74719 -90.36984 557 ft 20 kts 302°
2026-05-07 16:01 38.74804 -90.37156 561 ft 24 kts 303°
2026-05-07 16:01 38.74873 -90.37337 561 ft 23 kts 288°
2026-05-07 16:02 38.74946 -90.37494 555 ft 19 kts 298°
2026-05-07 16:02 38.75016 -90.37637 556 ft 19 kts 303°
2026-05-07 16:02 38.75084 -90.37775 547 ft 18 kts 308°
2026-05-07 16:02 38.75153 -90.37905 551 ft 17 kts 299°
2026-05-07 16:03 38.75221 -90.38018 554 ft 15 kts 345°
2026-05-07 16:03 38.75298 -90.37978 545 ft 6 kts 31°
2026-05-07 16:03 38.75300 -90.37976 545 ft 0 kts 31°
2026-05-07 16:04 38.75303 -90.37973 545 ft 4 kts 32°
2026-05-07 16:04 38.75366 -90.37905 544 ft 15 kts 67°
2026-05-07 16:05 38.75328 -90.37791 545 ft 11 kts 127°
2026-05-07 16:05 38.75191 -90.37511 547 ft 78 kts 122°
2026-05-07 16:05 38.74760 -90.36637 557 ft 154 kts 123°
2026-05-07 16:05 38.74110 -90.35280 964 ft 189 kts 125°
2026-05-07 16:06 38.73449 -90.33919 2311 ft 176 kts 124°
2026-05-07 16:06 38.72750 -90.32480 2800 ft 208 kts 125°
2026-05-07 16:06 38.71908 -90.30805 3076 ft 239 kts 123°
2026-05-07 16:06 38.70988 -90.28945 3553 ft 251 kts 125°
2026-05-07 16:07 38.69743 -90.27416 4248 ft 248 kts 157°
2026-05-07 16:07 38.68060 -90.26977 4919 ft 256 kts 188°
2026-05-07 16:07 38.66322 -90.27572 5575 ft 265 kts 201°
2026-05-07 16:07 38.65150 -90.28054 6097 ft 271 kts 198°
2026-05-07 16:08 38.63369 -90.28943 6822 ft 276 kts 219°
2026-05-07 16:08 38.62049 -90.31547 8200 ft 262 kts 252°
2026-05-07 16:08 38.61286 -90.33678 9149 ft 266 kts 245°
2026-05-07 16:08 38.60374 -90.35735 10118 ft 266 kts 243°
2026-05-07 16:09 38.59403 -90.37810 10640 ft 283 kts 243°
2026-05-07 16:09 38.58688 -90.39307 10760 ft 300 kts 242°
2026-05-07 16:09 38.57561 -90.41638 10959 ft 324 kts 242°
2026-05-07 16:09 38.56347 -90.44129 11504 ft 334 kts 242°
2026-05-07 16:10 38.55107 -90.46657 12326 ft 336 kts 242°
2026-05-07 16:10 38.53863 -90.49189 13223 ft 336 kts 242°
2026-05-07 16:10 38.52615 -90.51728 14042 ft 339 kts 242°
2026-05-07 16:10 38.51357 -90.54288 14718 ft 342 kts 243°
2026-05-07 16:11 38.50089 -90.56869 15410 ft 345 kts 243°
2026-05-07 16:11 38.48810 -90.59470 16110 ft 347 kts 243°
2026-05-07 16:11 38.47522 -90.62090 16806 ft 350 kts 243°
2026-05-07 16:11 38.46221 -90.64732 17507 ft 353 kts 243°
2026-05-07 16:12 38.44906 -90.67400 18166 ft 356 kts 243°
2026-05-07 16:12 38.43582 -90.70086 18772 ft 359 kts 243°
2026-05-07 16:12 38.42249 -90.72786 19373 ft 361 kts 243°
2026-05-07 16:12 38.40908 -90.75501 20001 ft 362 kts 243°
2026-05-07 16:13 38.39564 -90.78220 20568 ft 364 kts 244°
2026-05-07 16:13 38.38205 -90.80967 21128 ft 367 kts 244°
2026-05-07 16:13 38.36840 -90.83724 21681 ft 369 kts 244°
2026-05-07 16:13 38.35465 -90.86500 22241 ft 371 kts 244°
2026-05-07 16:14 38.34082 -90.89288 22777 ft 373 kts 244°
2026-05-07 16:14 38.32711 -90.92053 23290 ft 375 kts 244°
2026-05-07 16:14 38.31311 -90.94870 23816 ft 377 kts 244°
2026-05-07 16:14 38.29903 -90.97701 24216 ft 380 kts 244°
2026-05-07 16:15 38.28397 -91.00492 24603 ft 386 kts 240°
2026-05-07 16:15 38.26744 -91.03208 25023 ft 389 kts 238°
2026-05-07 16:15 38.25037 -91.05892 25417 ft 392 kts 238°
2026-05-07 16:15 38.23306 -91.08587 25806 ft 394 kts 238°
2026-05-07 16:16 38.21567 -91.11300 26181 ft 396 kts 238°
2026-05-07 16:16 38.19828 -91.14029 26565 ft 398 kts 238°
2026-05-07 16:16 38.18089 -91.16776 26871 ft 400 kts 238°
2026-05-07 16:16 38.16344 -91.19544 27238 ft 402 kts 238°
2026-05-07 16:17 38.14601 -91.22314 27753 ft 400 kts 238°
2026-05-07 16:17 38.12873 -91.25059 28346 ft 396 kts 238°
2026-05-07 16:17 38.11162 -91.27778 28905 ft 393 kts 238°
2026-05-07 16:17 38.09455 -91.30493 29398 ft 392 kts 238°
2026-05-07 16:18 38.07753 -91.33200 29872 ft 392 kts 238°
2026-05-07 16:18 38.06123 -91.35948 30345 ft 386 kts 244°
2026-05-07 16:18 38.04874 -91.38912 30796 ft 378 kts 249°
2026-05-07 16:18 38.03731 -91.41897 31279 ft 374 kts 249°
2026-05-07 16:19 38.02599 -91.44818 31690 ft 373 kts 249°
2026-05-07 16:19 38.01451 -91.47764 32056 ft 372 kts 249°
2026-05-07 16:19 38.00292 -91.50728 32102 ft 378 kts 249°
2026-05-07 16:20 37.97946 -91.56699 32123 ft 377 kts 248°
2026-05-07 16:20 37.95623 -91.62579 32134 ft 371 kts 248°
2026-05-07 16:21 37.93303 -91.68448 32116 ft 372 kts 248°
2026-05-07 16:21 37.90978 -91.74319 32126 ft 373 kts 248°
2026-05-07 16:22 37.88658 -91.80152 32129 ft 374 kts 248°
2026-05-07 16:22 37.86319 -91.86039 32121 ft 374 kts 248°
2026-05-07 16:23 37.83974 -91.91932 32093 ft 374 kts 248°
2026-05-07 16:23 37.81630 -91.97806 32110 ft 374 kts 248°
2026-05-07 16:24 37.79284 -92.03672 32110 ft 374 kts 248°
2026-05-07 16:24 37.76928 -92.09554 32102 ft 374 kts 248°
2026-05-07 16:25 37.74589 -92.15381 32109 ft 374 kts 248°
2026-05-07 16:25 37.72236 -92.21233 32110 ft 374 kts 248°
2026-05-07 16:26 37.69876 -92.27090 32106 ft 373 kts 248°
2026-05-07 16:26 37.67520 -92.32927 32105 ft 372 kts 248°
2026-05-07 16:27 37.65164 -92.38753 32129 ft 372 kts 248°
2026-05-07 16:27 37.62800 -92.44589 32134 ft 373 kts 248°
2026-05-07 16:28 37.60448 -92.50385 32135 ft 373 kts 248°
2026-05-07 16:28 37.58075 -92.56220 32138 ft 374 kts 248°
2026-05-07 16:29 37.55695 -92.62062 32137 ft 374 kts 248°
2026-05-07 16:29 37.53316 -92.67891 32126 ft 374 kts 247°
2026-05-07 16:30 37.50933 -92.73719 32130 ft 374 kts 247°
2026-05-07 16:30 37.48556 -92.79521 32126 ft 374 kts 247°
2026-05-07 16:31 37.46166 -92.85347 32123 ft 374 kts 247°
2026-05-07 16:31 37.43779 -92.91174 32070 ft 374 kts 247°
2026-05-07 16:32 37.41385 -92.96982 32118 ft 373 kts 247°
2026-05-07 16:32 37.38992 -93.02769 32123 ft 373 kts 247°
2026-05-07 16:33 37.36602 -93.08545 32118 ft 373 kts 247°
2026-05-07 16:33 37.34204 -93.14325 32130 ft 372 kts 247°
2026-05-07 16:34 37.31810 -93.20099 32116 ft 373 kts 247°
2026-05-07 16:34 37.29430 -93.25830 32130 ft 372 kts 247°
2026-05-07 16:35 37.27026 -93.31604 32130 ft 373 kts 247°
2026-05-07 16:35 37.24622 -93.37366 32138 ft 373 kts 247°
2026-05-07 16:36 37.22212 -93.43134 32134 ft 373 kts 247°
2026-05-07 16:36 37.19802 -93.48890 32138 ft 373 kts 247°
2026-05-07 16:37 37.17385 -93.54653 32119 ft 372 kts 247°
2026-05-07 16:37 37.14994 -93.60343 32131 ft 371 kts 247°
2026-05-07 16:38 37.12587 -93.66045 32136 ft 370 kts 246°
2026-05-07 16:38 37.10191 -93.71738 32127 ft 369 kts 247°
2026-05-07 16:39 37.07798 -93.77410 32134 ft 368 kts 247°
2026-05-07 16:39 37.05399 -93.83082 32129 ft 368 kts 246°
2026-05-07 16:40 37.03004 -93.88731 32142 ft 367 kts 246°
2026-05-07 16:40 37.00628 -93.94326 32146 ft 366 kts 246°
2026-05-07 16:41 36.98237 -93.99948 32148 ft 366 kts 246°
2026-05-07 16:41 36.95839 -94.05576 32148 ft 366 kts 246°
2026-05-07 16:42 36.93443 -94.11191 32149 ft 366 kts 246°
2026-05-07 16:42 36.91043 -94.16803 32127 ft 365 kts 246°
2026-05-07 16:43 36.88652 -94.22384 32138 ft 363 kts 246°
2026-05-07 16:43 36.86284 -94.27903 32144 ft 362 kts 246°
2026-05-07 16:44 36.83890 -94.33474 32147 ft 361 kts 246°
2026-05-07 16:44 36.81527 -94.38964 32149 ft 360 kts 246°
2026-05-07 16:45 36.79149 -94.44479 32149 ft 360 kts 246°
2026-05-07 16:45 36.76771 -94.49983 32154 ft 360 kts 246°
2026-05-07 16:46 36.74403 -94.55458 32148 ft 361 kts 246°
2026-05-07 16:46 36.72018 -94.60963 32146 ft 361 kts 246°
2026-05-07 16:47 36.69625 -94.66473 32151 ft 362 kts 246°
2026-05-07 16:47 36.67224 -94.71993 32146 ft 363 kts 246°
2026-05-07 16:48 36.64818 -94.77520 32121 ft 363 kts 246°
2026-05-07 16:48 36.62447 -94.82941 32144 ft 345 kts 246°
2026-05-07 16:49 36.60123 -94.88264 32156 ft 356 kts 246°
2026-05-07 16:49 36.57724 -94.93757 32161 ft 363 kts 246°
2026-05-07 16:50 36.55312 -94.99255 32148 ft 364 kts 246°
2026-05-07 16:50 36.52876 -95.04798 32156 ft 364 kts 246°
2026-05-07 16:51 36.50449 -95.10312 32152 ft 363 kts 246°
2026-05-07 16:51 36.48026 -95.15807 32150 ft 361 kts 246°
2026-05-07 16:52 36.45613 -95.21273 32153 ft 360 kts 246°
2026-05-07 16:52 36.43207 -95.26714 32150 ft 358 kts 246°
2026-05-07 16:53 36.41214 -95.31214 32152 ft 357 kts 246°
2026-05-07 16:53 36.38816 -95.36622 32142 ft 357 kts 246°
2026-05-07 16:54 36.36435 -95.41981 32138 ft 356 kts 246°
2026-05-07 16:54 36.34045 -95.47359 32142 ft 356 kts 246°
2026-05-07 16:55 36.31651 -95.52731 32150 ft 355 kts 246°
2026-05-07 16:55 36.29255 -95.58097 32150 ft 356 kts 245°
2026-05-07 16:56 36.26853 -95.63467 32162 ft 356 kts 245°
2026-05-07 16:56 36.23245 -95.71520 32161 ft 356 kts 245°
2026-05-07 16:57 36.20835 -95.76890 32159 ft 357 kts 245°
2026-05-07 16:57 36.18417 -95.82271 32167 ft 358 kts 246°
2026-05-07 16:58 36.16000 -95.87664 32167 ft 359 kts 245°
2026-05-07 16:58 36.13573 -95.93029 32166 ft 359 kts 245°
2026-05-07 16:59 36.11134 -95.98420 32166 ft 360 kts 245°
2026-05-07 16:59 36.08689 -96.03817 32157 ft 358 kts 245°
2026-05-07 17:00 36.06264 -96.09178 32154 ft 356 kts 245°
2026-05-07 17:00 36.03843 -96.14505 32165 ft 354 kts 245°
2026-05-07 17:01 36.01431 -96.19804 32180 ft 353 kts 245°
2026-05-07 17:01 35.99040 -96.25052 32177 ft 352 kts 245°
2026-05-07 17:02 35.96636 -96.30322 32178 ft 352 kts 245°
2026-05-07 17:02 35.94227 -96.35595 32177 ft 352 kts 245°
2026-05-07 17:03 35.91814 -96.40869 32172 ft 353 kts 245°
2026-05-07 17:03 35.89397 -96.46144 32171 ft 354 kts 245°
2026-05-07 17:04 35.86965 -96.51446 32175 ft 355 kts 245°
2026-05-07 17:04 35.84541 -96.56716 32170 ft 356 kts 245°
2026-05-07 17:05 35.82086 -96.62049 32172 ft 357 kts 244°
2026-05-07 17:05 35.79624 -96.67386 32174 ft 358 kts 244°
2026-05-07 17:06 35.77156 -96.72728 32176 ft 359 kts 244°
2026-05-07 17:06 35.74702 -96.78034 32176 ft 359 kts 244°
2026-05-07 17:07 35.72226 -96.83376 32176 ft 358 kts 244°
2026-05-07 17:07 35.69758 -96.88694 32171 ft 358 kts 244°
2026-05-07 17:08 35.67286 -96.94013 32176 ft 357 kts 244°
2026-05-07 17:08 35.64816 -96.99318 32174 ft 357 kts 244°
2026-05-07 17:09 35.62347 -97.04614 32173 ft 357 kts 244°
2026-05-07 17:09 35.59875 -97.09908 32164 ft 357 kts 244°
2026-05-07 17:10 35.57415 -97.15166 32155 ft 357 kts 244°
2026-05-07 17:10 35.54937 -97.20459 32153 ft 357 kts 244°
2026-05-07 17:11 35.52456 -97.25745 32153 ft 356 kts 244°
2026-05-07 17:11 35.49986 -97.31002 32154 ft 355 kts 244°
2026-05-07 17:12 35.47534 -97.36211 32157 ft 354 kts 244°
2026-05-07 17:12 35.45068 -97.41435 32156 ft 353 kts 244°
2026-05-07 17:13 35.42635 -97.46596 32161 ft 348 kts 244°
2026-05-07 17:13 35.40194 -97.51770 32163 ft 352 kts 244°
2026-05-07 17:14 35.37771 -97.57013 32151 ft 353 kts 249°
2026-05-07 17:14 35.36284 -97.62723 32151 ft 353 kts 257°
2026-05-07 17:15 35.35700 -97.68714 32162 ft 356 kts 266°
2026-05-07 17:15 35.35599 -97.74792 32155 ft 357 kts 267°
2026-05-07 17:16 35.35542 -97.80881 32147 ft 357 kts 267°
2026-05-07 17:16 35.35469 -97.86950 32146 ft 356 kts 266°
2026-05-07 17:17 35.35381 -97.92956 32154 ft 354 kts 266°
2026-05-07 17:17 35.35286 -97.98963 32147 ft 352 kts 266°
2026-05-07 17:18 35.35186 -98.04967 32157 ft 352 kts 266°
2026-05-07 17:18 35.35085 -98.10962 32152 ft 352 kts 268°
2026-05-07 17:19 35.35012 -98.16962 32152 ft 352 kts 266°
2026-05-07 17:19 35.34885 -98.22974 32151 ft 353 kts 266°
2026-05-07 17:20 35.34761 -98.28959 32151 ft 354 kts 266°
2026-05-07 17:20 35.34641 -98.34993 32129 ft 355 kts 266°
2026-05-07 17:21 35.34521 -98.41043 32144 ft 355 kts 266°
2026-05-07 17:21 35.34398 -98.47102 32152 ft 356 kts 266°
2026-05-07 17:22 35.34271 -98.53171 32150 ft 357 kts 266°
2026-05-07 17:22 35.34143 -98.59248 32154 ft 357 kts 266°
2026-05-07 17:23 35.34012 -98.65333 32149 ft 357 kts 266°
2026-05-07 17:23 35.33885 -98.71378 32151 ft 357 kts 266°
2026-05-07 17:24 35.33740 -98.77462 32150 ft 357 kts 265°
2026-05-07 17:24 35.33577 -98.83542 32139 ft 357 kts 266°
2026-05-07 17:25 35.33441 -98.89636 32142 ft 358 kts 266°
2026-05-07 17:25 35.33302 -98.95732 32154 ft 358 kts 266°
2026-05-07 17:26 35.33156 -99.01822 32161 ft 358 kts 266°
2026-05-07 17:26 35.33004 -99.07880 32166 ft 358 kts 266°
2026-05-07 17:27 35.32847 -99.13979 32164 ft 358 kts 266°
2026-05-07 17:27 35.32678 -99.20088 32167 ft 359 kts 265°
2026-05-07 17:28 35.32508 -99.26203 32170 ft 359 kts 266°
2026-05-07 17:28 35.32348 -99.32284 32163 ft 360 kts 265°
2026-05-07 17:29 35.32180 -99.38412 32137 ft 360 kts 266°
2026-05-07 17:29 35.32002 -99.44550 32138 ft 360 kts 265°
2026-05-07 17:30 35.31865 -99.50686 32132 ft 361 kts 268°
2026-05-07 17:30 35.31759 -99.56831 32144 ft 360 kts 265°
2026-05-07 17:31 35.31523 -99.62973 32136 ft 361 kts 265°
2026-05-07 17:31 35.31307 -99.69095 32131 ft 362 kts 265°
2026-05-07 17:32 35.31107 -99.75261 32128 ft 362 kts 265°
2026-05-07 17:32 35.30944 -99.80383 32127 ft 362 kts 265°
2026-05-07 17:33 35.30714 -99.87588 32118 ft 362 kts 265°
2026-05-07 17:33 35.30615 -99.90668 32128 ft 362 kts 265°